This is the latest recevied weather packets stored in our database for station/object AI5YA-13. If no packets are shown the sender has not sent any weather packets the latest 10 day(s).
| Time | Temp. | Humidity | Pressure | Rain* | Wind** | Luminosity | Snow |
|---|---|---|---|---|---|---|---|
| 1777519646 | 16.11° C | 57% | 1015.8 hPa | 0 mm | - | 0 W/m² | - |
| 1777519342 | 16.67° C | 56% | 1015.5 hPa | 0 mm | - | 0 W/m² | - |
| 1777519039 | 16.67° C | 57% | 1015.4 hPa | 0 mm | - | 0 W/m² | - |
| 1777518735 | 16.67° C | 57% | 1015.2 hPa | 0 mm | - | 0 W/m² | - |
| 1777518433 | 16.67° C | 56% | 1015.2 hPa | 0 mm | - | 0 W/m² | - |
| 1777518128 | 16.67° C | 56% | 1015.1 hPa | 0 mm | - | 0 W/m² | - |
| 1777517824 | 17.78° C | 55% | 1015.1 hPa | 0 mm | - | 0 W/m² | - |
| 1777517520 | 17.78° C | 54% | 1015.2 hPa | 0 mm | - | 0 W/m² | - |
| 1777517219 | 17.78° C | 54% | 1015 hPa | 0 mm | - | 0 W/m² | - |
| 1777516917 | 17.78° C | 54% | 1014.6 hPa | 0 mm | - | 0 W/m² | - |
| 1777516613 | 18.33° C | 53% | 1014.6 hPa | 0 mm | - | 0 W/m² | - |
| 1777516309 | 18.33° C | 53% | 1014.2 hPa | 0 mm | - | 0 W/m² | - |
| 1777516005 | 18.33° C | 53% | 1014.1 hPa | 0 mm | - | 0 W/m² | - |
| 1777515702 | 18.33° C | 53% | 1014 hPa | 0 mm | - | 0 W/m² | - |
| 1777515399 | 18.89° C | 53% | 1014 hPa | 0 mm | - | 0 W/m² | - |
| 1777515095 | 18.89° C | 52% | 1014 hPa | 0 mm | - | 0 W/m² | - |
| 1777514792 | 18.89° C | 52% | 1014 hPa | 0 mm | - | 0 W/m² | - |
| 1777514489 | 18.89° C | 52% | 1013.7 hPa | 0 mm | - | 0 W/m² | - |
| 1777514186 | 19.44° C | 52% | 1014 hPa | 0 mm | - | 0 W/m² | - |
| 1777513882 | 19.44° C | 51% | 1014.1 hPa | 0 mm | - | 0 W/m² | - |
| 1777513580 | 19.44° C | 51% | 1013.6 hPa | 0 mm | - | 0 W/m² | - |
| 1777513276 | 19.44° C | 51% | 1013.9 hPa | 0 mm | - | 0 W/m² | - |
| 1777512973 | 20° C | 50% | 1013.6 hPa | 0 mm | - | 0 W/m² | - |
| 1777512669 | 20° C | 50% | 1014 hPa | 0 mm | - | 0 W/m² | - |
| 1777512366 | 20° C | 50% | 1014 hPa | 0 mm | - | 3 W/m² | - |
* Rain latest hour (hover to see other rain measurements)
** Current wind speed in m/s (hover to see current wind gust speed)